This demonstration page uses our WeatherBlox Daily Observations layout. Learn more.

Left ArrowRight Arrow

30.21309, -93.2044

Hourly Observations for July 9, 2019

Temp ( °F °C ) Dew Point ( °F °C ) Humidity (%) Winds ( mph kmh ) Pressure ( in mb ) Visibility ( mi km ) Precip ( " mm )
12:15 am 00:15 Clear 82 28 77 25.2 85 85 SSW 6 9 29.94 1014 10 16 0.00 0.00
12:35 am 00:35 Clear 82 27.8 77 25.2 86 86 SW 3 6 29.94 1014 10 16 0.00 0.00
12:55 am 00:55 Clear 82 27.7 77 25.2 86 86 SW 3 6 29.94 1014 10 16 0.00 0.00
1:15 am 01:15 Clear 82 27.7 77 25.2 86 86 SW 5 7 29.94 1014 10 16 0.00 0.00
1:35 am 01:35 Clear 82 27.5 77 25.2 87 87 SSW 3 6 29.95 1014 10 16 0.00 0.00
1:55 am 01:55 Clear 81 27.2 77 25.2 89 89 SW 5 7 29.95 1014 10 16 0.00 0.00
2:15 am 02:15 Clear 82 27.5 78 25.3 88 88 SW 5 7 29.95 1014 10 16 0.00 0.00
2:35 am 02:35 Clear 82 27.5 77 25.2 87 87 Calm 29.94 1014 10 16 0.00 0.00
2:55 am 02:55 Clear 82 27.8 77 25.2 86 86 WSW 6 9 29.94 1014 10 16 0.00 0.00
3:15 am 03:15 Clear 82 27.9 78 25.3 86 86 NW 6 9 29.95 1014 10 16 0.00 0.00
3:35 am 03:35 Partly Cloudy 81 27.1 77 25.2 89 89 N 8 13 29.95 1014 10 16 0.00 0.00
3:55 am 03:55 Partly Cloudy 82 27.7 78 25.5 88 88 W 5 7 29.94 1014 10 16 0.00 0.00
4:15 am 04:15 Partly Cloudy 82 27.7 78 25.5 88 88 WSW 5 7 29.94 1014 10 16 0.00 0.00
4:35 am 04:35 Partly Cloudy 82 27.9 78 25.3 86 86 WSW 6 9 29.94 1014 10 16 0.00 0.00
4:55 am 04:55 Clear 82 27.7 77 25.2 86 86 WSW 3 6 29.94 1014 10 16 0.00 0.00
5:35 am 05:35 Clear 82 27.5 77 25.1 87 87 Calm 29.94 1014 10 16 0.00 0.00
6:00 am 06:00 Mostly Clear 79 26 77 25 94 94 SSE 8 13 29.95 1014 10 16 0.00 0.00
6:55 am 06:55 Mostly Sunny 81 27 77 25 89 89 Calm 29.96 1015 10 16 0.00 0.00
7:55 am 07:55 Mostly Sunny 82 28 79 26 89 89 Calm 29.98 1015 10 16 0.00 0.00
8:50 am 08:50 Mostly Cloudy 86 30 77 25 75 75 WNW 10 17 30.01 1016 10 16 0.00 0.00
9:55 am 09:55 Mostly Cloudy 88 31 77 25 70 70 WNW 8 13 30.02 1017 10 16 0.00 0.00
11:52 am 11:52 Mostly Cloudy 90 32 75 24 63 63 WNW 7 11 30.01 1016 10 16 0.00 0.00
12:55 pm 12:55 Mostly Cloudy 91 33 73 23 56 56 Calm 30.00 1016 10 16 0.00 0.00
1:45 pm 13:45 Mostly Cloudy 90 32 77 25 67 67 SSW 7 11 29.98 1015 10 16 0.00 0.00
2:45 pm 14:45 Mostly Cloudy 91 33 75 24 59 59 VRB 7 11 29.97 1015 10 16 0.00 0.00
3:55 pm 15:55 Mostly Cloudy 90 32 75 24 63 63 VRB 7 11 29.95 1014 10 16 0.00 0.00
4:55 pm 16:55 Mostly Cloudy with Light Rain 90 32 77 25 67 67 VRB 3 6 29.94 1014 10 16 0.00 0.00
5:45 pm 17:45 Partly Cloudy 79 26 77 25 94 94 Calm 29.93 1014 10 16 0.00 0.00
6:45 pm 18:45 Partly Cloudy 88 31 77 25 70 70 VRB 5 7 29.93 1014 10 16 0.00 0.00
9:45 pm 21:45 Mostly Clear 82 28 77 25 84 84 VRB 5 7 29.96 1015 10 16 0.00 0.00
10:15 pm 22:15 Clear 83 28.5 77 24.8 80 80 SW 7 11 29.97 1015 10 16 0.01 0.25
10:35 pm 22:35 Clear 83 28.5 77 24.8 80 80 WSW 5 7 29.97 1015 10 16 0.01 0.25
10:55 pm 22:55 Clear 83 28.5 77 25 81 81 WSW 6 9 29.97 1015 10 16 0.01 0.25
11:15 pm 23:15 Clear 83 28.4 77 25 82 82 WSW 3 6 29.97 1015 10 16 0.00 0.00
11:35 pm 23:35 Clear 83 28.3 77 25 82 82 WSW 3 6 29.98 1015 10 16 0.00 0.00
11:55 pm 23:55 Clear 83 28.1 77 25 83 83 WSW 3 6 29.98 1015 10 16 0.00 0.00

Powered by AerisWeather